Location: Stull Observatory
(42.2506°N, 77.7903°W)
Time: 16:55:07
(UTC-04:00)

Daily predictions for brighter satellites

Satellite Brightness Start Highest point End
(mag) Time Altitude Azimuth Time Altitude Azimuth Time Altitude Azimuth
Cosmos 1666 Rocket 3.6 20:24:09 10° N 20:28:38 77° E 20:33:04 10° SSE
Cosmos 1151 Rocket 3.9 20:26:29 10° SSE 20:30:08 28° E 20:33:48 10° NNE
Cosmos 2341 Rocket 4.2 20:27:30 10° SSE 20:33:40 55° E 20:39:49 10° NNE
Sich 1 3.1 20:29:25 10° N 20:33:42 84° W 20:37:59 10° S
Cosmos 1933 Rocket 4.4 20:30:38 10° NNE 20:34:32 31° ENE 20:38:23 10° SE
Meteor 2-21 Rocket 4.5 20:29:05 10° S 20:35:10 69° E 20:41:20 10° NNE
SL-16 R/B 3.5 20:32:26 10° SE 20:36:04 18° E 20:39:44 10° ENE
Envisat 3.1 20:32:13 10° SSE 20:37:18 87° WSW 20:42:25 10° NNW
H-2A R/B 3.9 20:35:29 10° E 20:37:26 12° ENE 20:39:23 10° NE
Aureole 2 4.2 20:35:25 10° S 20:38:19 50° ESE 20:41:12 10° NNE
Lacrosse 5 4.2 20:38:02 10° NNW 20:41:04 16° N 20:44:06 10° NE
Cosmos 2251 Rocket 4.4 20:38:48 10° NNW 20:44:01 52° WSW 20:49:11 10° S
Resurs 1-3 3.8 20:41:51 10° SSE 20:46:07 55° ENE 20:50:25 10° N
Cosmos 1408 3.3 20:44:20 10° N 20:47:44 35° ENE 20:51:09 10° SE
Cosmos 2056 Rocket 4.3 20:47:11 10° SSE 20:51:53 31° E 20:56:36 10° NE
SL-8 Rocket 4.2 20:45:53 10° SSE 20:51:55 50° E 20:57:56 10° NNE
USA 186 1.1 20:54:44 10° S 20:56:57 70° W 20:59:17 10° NNW
Meteor 2-3 Rocket 3.8 20:51:31 10° N 20:57:10 87° W 21:02:49 10° S
Cosmos 1633 Rocket 3.6 20:54:33 10° NNW 20:58:50 60° W 21:03:06 10° S
SJ-6B 4.2 20:57:07 10° S 21:00:54 40° W 21:04:39 10° NNW
Cosmos 1980 3.7 20:55:21 10° SSW 21:01:01 79° ESE 21:06:43 10° NNE
Centaur D-1A AC-31 3.7 20:48:19 10° SW 21:01:03 21° S 21:05:15 12° SE
ERS-2 2.8 20:57:46 10° S 21:01:22 55° WSW 21:04:59 10° NNW
YAOGAN 6 2.9 21:02:19 10° S 21:05:54 69° WSW 21:09:34 10° NNW
ATLAS CENTAUR R/B 2.5 21:02:52 10° SW 21:06:22 43° NW 21:10:04 10° NNE
ATLAS 2AS CENTAUR R/B 3.2 20:58:34 10° NW 21:06:25 70° WSW 21:13:35 10° SSE
Cosmos 2098 Rocket 3.5 21:03:26 10° SSE 21:07:36 35° E 21:11:00 10° NNE
Cosmos 2297 4.5 21:02:59 10° N 21:08:14 37° ENE 21:12:01 17° ESE
Cosmos 1624 Rocket 4.3 21:03:28 10° S 21:08:23 45° ESE 21:13:19 10° NNE
Cosmos 1869 3.6 21:05:16 10° SSE 21:09:06 45° E 21:12:57 10° NNE
Cosmos 2369 Rocket 4.4 21:09:03 10° NNE 21:10:00 10° NE 21:10:57 10° NE
Cosmos 1455 3.2 21:07:11 10° SSW 21:10:55 50° W 21:14:42 10° N
Cosmos 1515 Rocket 3.6 21:07:43 10° S 21:12:11 89° E 21:16:40 10° N
CZ-4C R/B 3.8 21:16:08 14° E 21:16:08 14° E 21:17:48 10° ENE
Cosmos 405 3.9 21:11:59 10° NNE 21:15:08 30° ENE 21:16:19 24° ESE
Cosmos 1939 Rocket 3.3 21:11:22 10° S 21:15:11 59° W 21:19:05 10° NNW
Cosmos 2333 Rocket 3.2 21:11:02 10° SW 21:16:32 51° WNW 21:22:03 10° NNE
Cosmos 1441 Rocket 4.3 21:16:44 22° ESE 21:17:23 24° E 21:20:27 10° NE
Thor Agena Rocket 4.2 21:13:18 10° N 21:18:28 60° WNW 21:23:38 10° SSW
Spot 2 Rocket 3.5 21:14:49 10° SSE 21:19:55 89° ENE 21:25:02 10° NNW
Cosmos 864 Rocket 4.5 21:16:21 10° S 21:22:22 62° E 21:28:25 10° NNE
Cosmos 2219 Rocket 3.7 21:17:42 10° SW 21:22:59 39° WNW 21:28:16 10° N
Cosmos 2228 Rocket 3.6 21:23:11 10° SSW 21:27:32 62° W 21:31:55 10° N
Cosmos 2237 Rocket 2.5 21:22:15 10° SSW 21:27:50 70° WNW 21:33:28 10° NNE
ATLAS 5 CENTAUR R/B 4.3 21:27:34 10° N 21:31:21 17° NNE 21:35:22 10° ENE
NOSS 3-4 (A) 3.9 21:30:02 10° NNW 21:37:04 71° NE 21:41:47 25° SE
NOSS 3-4 (C) 3.9 21:30:08 10° NNW 21:37:10 70° NE 21:41:52 25° SE
Cosmos 2278 Rocket 2.8 21:32:04 10° NNW 21:37:35 53° WSW 21:42:33 13° S
NOAA 11 4.4 21:36:14 12° S 21:41:23 70° WSW 21:46:54 10° NNW
BREEZE-M DEB (TANK) 1.6 21:38:38 10° WNW 21:41:38 72° NNE 21:41:43 70° NE
USA 267 4.4 21:41:32 10° ENE 21:54:29 - S 21:44:35 21° E
Cosmos 614 Rocket 4.5 21:42:36 10° N 21:47:37 44° ENE 21:49:21 33° ESE
Cosmos 405 Rocket 2.8 21:48:48 46° SE 21:49:32 55° E 21:53:24 10° NNE
ERS-1 Rocket 3.2 21:49:59 35° ESE 21:51:43 50° ENE 21:56:34 10° N
GEOS 3 Rocket 4.4 21:48:21 10° NE 21:52:18 30° E 21:52:18 30° E
Cosmos 1825 3.6 21:50:01 10° NNW 21:53:30 35° W 21:56:25 13° SSW
Resurs 01 Rocket 3.5 21:50:22 10° SSW 21:54:12 28° W 21:58:03 10° NW
Terra 3.5 21:56:55 18° ENE 21:57:18 18° ENE 22:00:29 10° NNE
Cosmos 1437 Rocket 4.4 21:54:24 10° NNE 21:56:56 21° ENE 21:56:56 21° ENE
Cosmos 407 Rocket 3.5 21:53:28 10° NNW 21:58:36 78° WSW 22:00:57 33° S
Cosmos 1862 3.2 21:56:21 10° N 22:00:24 80° E 22:01:11 56° SSE
Helios 1B rocket 4.1 21:57:37 10° NE 21:59:33 20° ENE 21:59:33 20° ENE
SL-8 R/B 4.4 21:56:31 10° W 22:01:12 52° NNW 22:05:40 11° ENE
Cosmos 1727 Rocket 4.0 21:56:35 10° N 22:02:46 79° W 22:06:53 22° S
Cosmos 1821 Rocket 4.3 22:01:59 35° SE 22:04:07 48° E 22:10:08 10° NNE
SPOT 1/Viking Rocket 4.0 22:07:19 39° E 22:08:19 43° ENE 22:13:15 10° N
DMSP B5D2-2 4.4 22:04:27 10° NNE 22:09:30 44° E 22:09:49 43° ESE
USA 81 4.1 22:04:39 10° N 22:09:56 78° W 22:12:30 31° S
MetOp-B 4.1 22:09:00 37° SSE 22:11:12 86° WSW 22:16:35 10° NNW
ARGOS 3.2 22:10:29 33° S 22:12:57 74° WSW 22:18:20 10° NNW
Cosmos 1943 Rocket 3.7 22:11:50 10° N 22:15:58 21° NE 22:17:12 20° ENE
H-2A R/B 1.9 22:14:36 46° S 22:16:09 87° WSW 22:21:09 10° NNW
ATLAS 2A CENTAUR R/B 4.3 22:02:56 10° WSW 22:18:21 34° S 22:20:59 30° SSE
SL-16 R/B 2.5 22:13:58 10° SW 22:19:35 65° WNW 22:25:14 10° NNE
Cosmos 676 Rocket 4.0 22:16:00 10° NNW 22:21:16 80° WSW 22:22:34 52° S
Cosmos 2123 Rocket 4.4 22:15:58 10° N 22:21:56 42° ENE 22:22:55 40° E
SL-08 RB Rocket 3.8 22:22:03 53° SSW 22:22:58 71° WSW 22:27:27 10° NNW
Cosmos 1023 Rocket 4.3 22:18:55 10° NNW 22:24:06 88° WSW 22:25:04 60° SSE
Lacrosse 5 3.1 22:20:56 10° NNW 22:25:28 31° NNE 22:26:57 27° ENE
SPOT 5 2.7 22:26:17 65° E 22:26:22 65° ENE 22:30:46 10° N
Cosmos 1707 Rocket 3.7 22:25:48 53° SW 22:26:40 71° W 22:31:00 10° N
Helios 1A 2.9 22:27:43 82° NE 22:27:43 82° NE 22:31:51 10° NNW
Cosmos 2344 3.5 22:23:31 10° SSW 22:31:06 79° ESE 22:39:27 10° NE
Cosmos 1452 Rocket 3.5 22:32:26 40° SSW 22:34:24 83° WNW 22:39:41 10° NNE
Cosmos 1535 Rocket 4.4 22:34:42 53° SSE 22:36:11 71° E 22:42:33 10° NNE
SL-19 R/B 4.2 22:36:44 61° ESE 22:37:29 69° ENE 22:43:05 10° NNW
Cosmos 1241 Rocket 4.4 22:34:40 10° NNW 22:41:01 79° ENE 22:42:14 60° SE
CARTOSAT-1 4.4 22:45:07 43° NNE 22:45:07 43° NNE 22:48:25 10° N
Cosmos 1733 Rocket 3.5 22:40:22 10° N 22:43:58 56° NNE 22:43:58 56° NNE
Meteor 2-17 Rocket 4.4 22:46:15 60° ESE 22:46:33 61° E 22:52:35 10° NNE
Cosmos 1603 3.5 22:46:57 71° E 22:46:57 71° E 22:52:25 10° NNE
Cosmos 1140 Rocket 3.8 22:42:15 10° NNW 22:47:18 55° WSW 22:47:57 51° SW
IGS 5A 4.4 22:49:31 42° NNE 22:49:31 42° NNE 22:52:31 10° N
Cosmos 1943 4.3 22:50:32 31° ENE 22:50:32 31° ENE 22:53:50 10° NE
Cosmos 1933 4.2 22:48:41 46° W 22:48:42 46° W 22:52:40 10° N
Cosmos 1850 Rocket 3.9 22:47:07 10° NNW 22:52:09 74° NE 22:52:09 74° NE
BREEZE-M DEB (TANK) 4.3 22:23:29 10° WNW 22:54:21 88° NNE 22:56:50 49° ESE
Cosmos 1605 Rocket 4.1 22:54:29 58° E 22:54:34 58° E 23:00:50 10° NNE
Cosmos 2369 Rocket 2.4 22:49:49 10° NNW 22:55:25 54° ENE 22:55:29 54° ENE
SL-24 R/B 4.5 22:55:20 81° SW 22:55:32 84° W 23:00:38 10° N
Cosmos 1741 Rocket 4.0 22:56:01 10° NNW 23:01:08 81° N 23:01:08 81° N
CZ-4C R/B 2.2 23:01:07 55° WSW 23:02:17 75° NW 23:08:15 10° NNE
CZ-2C R/B 4.1 22:59:25 10° NNE 23:02:18 26° ENE 23:02:18 26° ENE
Meteor 1-14 Rocket 4.1 23:00:33 10° N 23:05:59 86° NNW 23:05:59 86° NNW
Nimbus 7 Rocket 4.3 23:11:00 10° NNE 23:16:29 74° NE 23:16:29 74° NE
ATLAS 5 CENTAUR R/B 2.5 23:11:10 10° NNW 23:17:04 65° NE 23:17:14 65° ENE
Cosmos 1934 Rocket 4.2 23:18:29 54° WSW 23:19:29 62° W 23:25:30 10° N
Meteor 1-25 Rocket 4.4 23:18:13 10° NNW 23:23:42 67° W 23:23:42 67° W
USA 267 3.1 23:23:40 10° NE 23:30:14 88° NW 23:31:49 56° SW
GEOS 3 Rocket 4.4 23:26:03 10° NNE 23:31:12 49° NW 23:33:21 31° W
Terra 2.9 23:35:47 42° NW 23:35:47 42° NW 23:39:18 10° NNW
Helios 1B rocket 4.4 23:32:50 10° N 23:35:55 26° WNW 23:35:55 26° WNW
CZ-2C R/B 3.8 23:39:46 45° NNW 23:39:46 45° NNW 23:43:08 10° NNW
H-2A R/B 4.5 23:41:26 17° NE 23:41:26 17° NE 23:43:09 10° NNE
